Flag for Germany Weather past 2 weeks in Krefeld, North Rhine-Westphalia, Germany

Now
54 °F

Passing clouds.


Feels Like: 50 °F
Forecast: 44 / 54 °F
Wind: 10 mph from West

Location: Monchengladbach Airport

Current Time: Dec 18, 2014 at 1:38:18 PM

Latest Report: Dec 18, 2014 at 12:50 PM


Visibility: 5 mi

Pressure: 29.83 "Hg

Humidity: 94%

Dew point: 52 °F

Location of KrefeldLocation

Historic Weather in Krefeld — Graph

°F

Krefeld temperature yesterday

Maximum temperature yesterday: 50 °F (at 5:50 PM)
Minimum temperature yesterday: 41 °F (at 7:50 AM)
Average temperature yesterday: 45 °F

Past Weeks' High & Low Weather Summary

 TemperatureHumidityPressure
High55 °F (Dec 18, 12:20 PM)100% (Dec 6, 8:20 AM)30.39 "Hg (Dec 6, 8:20 AM)
Low30 °F (Dec 3, 4:20 PM)66% (Dec 7, 12:50 PM)29.42 "Hg (Dec 12, 12:50 PM)
Average41 °F87%29.96 "Hg
* Reported Dec 3 12:20 PM — Dec 18 12:20 PM, Krefeld, Weather by CustomWeather, © 2014

Note: Actual official high and low records may vary slightly from our data, if they occured in-between our weather recording intervals... More about our weather records

Advertising

Krefeld weather history for previous 24 hours

 ConditionsComfort  
Time TempWeatherWind HumidityBarometerVisibility
12:20 PM
Dec 18
55 °FPassing clouds.9 mph88%29.86 "HgN/A
11:50 AM54 °FPassing clouds.10 mph94%29.86 "HgN/A
11:20 AM54 °FPassing clouds.9 mph94%29.86 "Hg6 mi
10:50 AM54 °FPassing clouds.9 mph94%29.86 "Hg5 mi
10:20 AM52 °FDrizzle. Fog.7 mph100%29.86 "Hg2 mi
9:50 AM52 °FDrizzle. Fog.6 mph100%29.83 "Hg2 mi
9:20 AM52 °FLight rain. Fog.6 mph100%29.83 "Hg2 mi
8:50 AM52 °FPassing clouds.7 mph94%29.83 "HgN/A
8:20 AM52 °FPassing clouds.7 mph100%29.83 "Hg5 mi
7:50 AM52 °FLight rain. Passing clouds.7 mph100%29.83 "HgN/A
7:50 PM
Dec 17
50 °FFog.6 mph100%29.74 "Hg3 mi
7:20 PM50 °FFog.6 mph100%29.74 "Hg3 mi
6:50 PM50 °FFog.7 mph100%29.71 "Hg2 mi
6:20 PM50 °FDrizzle. Fog.6 mph94%29.71 "Hg2 mi
5:50 PM50 °FDrizzle. Fog.6 mph94%29.71 "Hg2 mi
5:20 PM48 °FDrizzle. Fog.8 mph100%29.68 "Hg2 mi
4:50 PM48 °FDrizzle. Fog.8 mph100%29.68 "Hg2 mi
4:20 PM48 °FDrizzle. Fog.8 mph100%29.65 "Hg3 mi
3:50 PM48 °FDrizzle. Fog.9 mph94%29.65 "Hg2 mi
3:20 PM46 °FDrizzle. Fog.8 mph100%29.65 "Hg3 mi
2:50 PM46 °FDrizzle. Fog.8 mph93%29.62 "Hg2 mi
2:20 PM46 °FDrizzle. Fog.10 mph93%29.62 "Hg2 mi
1:50 PM45 °FDrizzle. Fog.12 mph100%29.59 "Hg2 mi
1:20 PM45 °FDrizzle. Fog.12 mph93%29.59 "Hg2 mi
Weather by CustomWeather, © 2014

See weather overviewHow to use our weather pages